Total_Precipitation_Accumulation
0.05 0.05 0.05 0.06 0.05 0.03 0.00 0.00 0.00 0.00 0.00 0.00 0.00 0.00 0.00 0.00 0.00 0.00 0.00 0.00 0.02 0.03 0.05 0.14 0.21 0.25 0.31 0.34 0.32 0.29 0.26 0.30 0.34 0.35 0.39 0.45 0.44 0.40 0.40 0.37 0.37 0.39 0.44 0.44 0.43 0.42 0.41 0.35 0.31
0.05 0.08 0.09 0.09 0.05 0.01 0.00 0.00 0.00 0.00 0.00 0.00 0.00 0.00 0.00 0.00 0.00 0.00 0.00 0.00 0.01 0.01 0.03 0.09 0.19 0.25 0.30 0.33 0.31 0.29 0.28 0.29 0.33 0.35 0.38 0.42 0.43 0.43 0.40 0.37 0.38 0.43 0.49 0.53 0.52 0.49 0.46 0.40 0.36
0.09 0.12 0.11 0.09 0.04 0.00 0.00 0.00 0.00 0.00 0.00 0.00 0.00 0.00 0.00 0.00 0.00 0.00 0.00 0.00 0.00 0.01 0.03 0.09 0.20 0.26 0.32 0.35 0.33 0.31 0.31 0.32 0.34 0.36 0.40 0.45 0.42 0.41 0.38 0.36 0.35 0.40 0.50 0.56 0.56 0.49 0.45 0.43 0.41
0.11 0.16 0.14 0.09 0.02 0.00 0.00 0.00 0.00 0.00 0.00 0.00 0.00 0.00 0.00 0.00 0.00 0.00 0.00 0.00 0.01 0.02 0.03 0.11 0.21 0.28 0.33 0.36 0.36 0.34 0.34 0.37 0.38 0.39 0.43 0.48 0.47 0.43 0.40 0.36 0.33 0.35 0.42 0.49 0.49 0.45 0.45 0.45 0.40
0.16 0.17 0.15 0.07 0.01 0.00 0.00 0.00 0.00 0.00 0.00 0.00 0.00 0.00 0.00 0.00 0.00 0.00 0.00 0.00 0.01 0.02 0.04 0.13 0.24 0.32 0.36 0.38 0.37 0.38 0.38 0.41 0.43 0.45 0.49 0.52 0.51 0.48 0.45 0.43 0.37 0.34 0.34 0.38 0.41 0.41 0.42 0.44 0.39
0.22 0.20 0.14 0.05 0.01 0.00 0.00 0.00 0.00 0.00 0.00 0.00 0.00 0.00 0.00 0.00 0.00 0.00 0.00 0.01 0.01 0.02 0.06 0.15 0.29 0.35 0.40 0.42 0.41 0.43 0.44 0.48 0.49 0.51 0.54 0.55 0.52 0.51 0.48 0.46 0.40 0.34 0.32 0.31 0.32 0.34 0.37 0.38 0.38
0.21 0.21 0.12 0.05 0.02 0.01 0.01 0.00 0.01 0.00 0.00 0.00 0.00 0.01 0.01 0.01 0.01 0.01 0.01 0.02 0.03 0.04 0.08 0.17 0.28 0.36 0.43 0.46 0.46 0.47 0.49 0.50 0.54 0.56 0.56 0.56 0.54 0.54 0.55 0.50 0.44 0.40 0.38 0.34 0.29 0.28 0.28 0.28 0.31
0.25 0.29 0.15 0.06 0.03 0.02 0.00 0.00 0.01 0.01 0.01 0.00 0.01 0.01 0.01 0.01 0.01 0.02 0.03 0.04 0.05 0.08 0.12 0.19 0.29 0.35 0.42 0.48 0.52 0.51 0.53 0.56 0.59 0.60 0.58 0.54 0.56 0.58 0.56 0.49 0.43 0.43 0.43 0.39 0.35 0.30 0.26 0.23 0.22
0.35 0.40 0.19 0.06 0.04 0.03 0.02 0.02 0.01 0.01 0.02 0.01 0.01 0.01 0.01 0.01 0.02 0.03 0.06 0.08 0.11 0.14 0.18 0.26 0.34 0.40 0.45 0.51 0.55 0.61 0.65 0.69 0.71 0.68 0.64 0.63 0.61 0.58 0.50 0.43 0.42 0.44 0.45 0.40 0.38 0.36 0.30 0.26 0.20
0.38 0.34 0.15 0.04 0.03 0.05 0.05 0.05 0.04 0.04 0.03 0.02 0.02 0.02 0.02 0.02 0.03 0.05 0.07 0.09 0.12 0.16 0.21 0.28 0.39 0.45 0.52 0.56 0.65 0.75 0.76 0.77 0.76 0.66 0.63 0.64 0.58 0.55 0.50 0.45 0.45 0.48 0.47 0.44 0.43 0.41 0.37 0.31 0.22
0.30 0.23 0.10 0.06 0.04 0.07 0.07 0.07 0.08 0.09 0.07 0.03 0.04 0.04 0.03 0.04 0.06 0.09 0.11 0.11 0.11 0.13 0.20 0.28 0.40 0.51 0.56 0.59 0.67 0.76 0.78 0.77 0.77 0.72 0.67 0.65 0.66 0.62 0.59 0.55 0.55 0.54 0.51 0.50 0.49 0.50 0.46 0.40 0.35
0.23 0.16 0.11 0.09 0.09 0.10 0.11 0.10 0.10 0.10 0.08 0.04 0.04 0.06 0.06 0.07 0.08 0.10 0.12 0.12 0.14 0.17 0.23 0.32 0.44 0.53 0.56 0.57 0.63 0.69 0.71 0.69 0.69 0.69 0.71 0.71 0.70 0.66 0.64 0.61 0.62 0.62 0.60 0.56 0.54 0.51 0.48 0.44 0.39
0.21 0.12 0.09 0.10 0.12 0.13 0.13 0.11 0.10 0.07 0.04 0.05 0.05 0.06 0.08 0.08 0.09 0.09 0.11 0.17 0.18 0.20 0.27 0.38 0.46 0.54 0.60 0.63 0.67 0.71 0.67 0.63 0.64 0.67 0.71 0.66 0.58 0.54 0.51 0.49 0.48 0.45 0.44 0.43 0.44 0.45 0.44 0.42 0.37
0.17 0.12 0.09 0.11 0.12 0.14 0.15 0.11 0.09 0.05 0.03 0.05 0.07 0.07 0.07 0.08 0.09 0.10 0.12 0.18 0.22 0.23 0.30 0.42 0.51 0.57 0.65 0.64 0.67 0.69 0.68 0.65 0.67 0.65 0.61 0.58 0.52 0.47 0.43 0.41 0.38 0.35 0.33 0.31 0.31 0.31 0.32 0.32 0.31
0.20 0.21 0.15 0.09 0.10 0.12 0.19 0.18 0.07 0.04 0.04 0.07 0.09 0.08 0.07 0.08 0.10 0.11 0.12 0.14 0.20 0.26 0.34 0.44 0.55 0.66 0.72 0.70 0.71 0.74 0.73 0.69 0.67 0.66 0.60 0.58 0.53 0.48 0.46 0.43 0.38 0.33 0.33 0.34 0.34 0.33 0.30 0.27 0.26
0.30 0.35 0.26 0.10 0.08 0.12 0.27 0.23 0.06 0.04 0.08 0.10 0.10 0.09 0.09 0.08 0.10 0.13 0.15 0.16 0.20 0.29 0.39 0.47 0.59 0.73 0.80 0.79 0.78 0.77 0.77 0.77 0.74 0.69 0.66 0.60 0.55 0.51 0.49 0.48 0.44 0.39 0.39 0.40 0.40 0.37 0.34 0.30 0.27
0.41 0.37 0.22 0.09 0.08 0.15 0.27 0.20 0.05 0.05 0.09 0.10 0.11 0.11 0.10 0.10 0.11 0.14 0.17 0.19 0.21 0.29 0.39 0.50 0.60 0.74 0.85 0.90 0.86 0.85 0.80 0.82 0.82 0.75 0.68 0.64 0.58 0.54 0.51 0.50 0.50 0.49 0.50 0.48 0.44 0.40 0.37 0.34 0.30
0.38 0.25 0.16 0.09 0.08 0.14 0.19 0.14 0.06 0.06 0.09 0.10 0.11 0.12 0.12 0.14 0.15 0.17 0.20 0.23 0.25 0.29 0.38 0.51 0.63 0.80 0.90 1.04 1.07 1.04 0.98 0.89 0.86 0.83 0.72 0.65 0.62 0.60 0.57 0.55 0.55 0.57 0.56 0.55 0.50 0.43 0.39 0.37 0.35
0.25 0.25 0.18 0.07 0.06 0.15 0.15 0.10 0.08 0.08 0.10 0.11 0.11 0.14 0.15 0.16 0.19 0.21 0.26 0.32 0.35 0.37 0.42 0.51 0.65 0.81 0.98 1.08 1.16 1.12 1.06 0.93 0.88 0.86 0.81 0.71 0.66 0.67 0.66 0.61 0.62 0.59 0.58 0.55 0.53 0.51 0.48 0.43 0.39
0.28 0.32 0.23 0.13 0.08 0.17 0.17 0.10 0.07 0.08 0.11 0.13 0.13 0.16 0.18 0.16 0.18 0.19 0.24 0.35 0.41 0.43 0.46 0.50 0.61 0.73 0.91 1.03 1.08 1.14 1.08 1.00 0.91 0.87 0.85 0.78 0.68 0.71 0.76 0.71 0.65 0.63 0.58 0.58 0.60 0.57 0.56 0.54 0.47
0.32 0.29 0.23 0.18 0.15 0.20 0.23 0.16 0.06 0.05 0.07 0.10 0.11 0.13 0.16 0.17 0.18 0.19 0.23 0.32 0.41 0.44 0.49 0.53 0.58 0.65 0.77 1.02 1.24 1.35 1.39 1.27 1.10 0.98 0.89 0.80 0.72 0.67 0.74 0.78 0.72 0.67 0.62 0.58 0.57 0.56 0.54 0.55 0.48
0.35 0.19 0.19 0.23 0.36 0.37 0.32 0.34 0.08 0.04 0.05 0.07 0.09 0.10 0.11 0.14 0.15 0.16 0.20 0.28 0.36 0.43 0.53 0.62 0.61 0.67 0.77 0.94 1.25 1.41 1.45 1.33 1.07 0.90 0.86 0.84 0.78 0.71 0.68 0.75 0.77 0.74 0.70 0.63 0.58 0.56 0.54 0.58 0.59
0.26 0.19 0.23 0.28 0.45 0.54 0.37 0.42 0.14 0.06 0.07 0.06 0.06 0.08 0.09 0.12 0.14 0.13 0.16 0.21 0.31 0.44 0.55 0.67 0.72 0.77 0.85 0.93 1.12 1.35 1.46 1.38 1.23 1.08 0.96 0.90 0.88 0.83 0.75 0.72 0.76 0.77 0.75 0.71 0.65 0.60 0.60 0.60 0.63
0.23 0.29 0.37 0.45 0.75 0.99 0.37 0.35 0.20 0.11 0.13 0.10 0.08 0.09 0.10 0.12 0.15 0.13 0.13 0.17 0.27 0.42 0.50 0.64 0.76 0.81 0.92 0.98 1.09 1.21 1.38 1.48 1.44 1.32 1.18 1.04 0.99 0.94 0.91 0.78 0.75 0.76 0.74 0.74 0.70 0.64 0.62 0.62 0.60
0.41 0.75 1.14 1.24 1.34 0.86 0.18 0.24 0.22 0.12 0.09 0.12 0.14 0.12 0.12 0.12 0.14 0.13 0.12 0.14 0.21 0.39 0.49 0.60 0.75 0.78 0.88 0.95 1.03 1.14 1.28 1.44 1.54 1.43 1.26 1.17 1.13 1.04 0.95 0.90 0.81 0.78 0.74 0.72 0.72 0.72 0.64 0.60 0.62
0.45 0.70 1.00 0.93 0.59 0.22 0.11 0.18 0.17 0.10 0.06 0.06 0.08 0.11 0.12 0.12 0.12 0.14 0.14 0.14 0.18 0.27 0.39 0.51 0.69 0.74 0.77 0.85 0.92 1.05 1.22 1.38 1.47 1.48 1.33 1.23 1.16 1.06 0.95 0.91 0.85 0.79 0.79 0.79 0.76 0.74 0.69 0.65 0.62
0.43 0.46 0.44 0.65 0.48 0.29 0.20 0.15 0.11 0.06 0.04 0.03 0.04 0.06 0.09 0.12 0.11 0.12 0.15 0.15 0.18 0.23 0.32 0.43 0.64 0.72 0.70 0.75 0.82 0.93 1.07 1.24 1.33 1.40 1.38 1.27 1.21 1.15 1.09 1.00 0.96 0.88 0.86 0.83 0.82 0.79 0.72 0.71 0.69
0.36 0.45 0.49 0.83 0.83 0.51 0.29 0.17 0.17 0.12 0.08 0.06 0.06 0.07 0.08 0.10 0.10 0.10 0.13 0.14 0.17 0.21 0.29 0.38 0.55 0.70 0.71 0.72 0.78 0.87 0.93 1.07 1.20 1.33 1.43 1.34 1.28 1.23 1.24 1.19 1.14 1.04 1.00 0.96 0.92 0.88 0.78 0.76 0.74
0.42 0.55 0.71 0.76 0.61 0.52 0.40 0.28 0.25 0.18 0.14 0.11 0.09 0.08 0.08 0.09 0.10 0.10 0.12 0.12 0.15 0.18 0.24 0.36 0.49 0.63 0.72 0.75 0.75 0.84 0.92 1.03 1.10 1.14 1.24 1.35 1.35 1.29 1.30 1.32 1.30 1.25 1.15 1.11 1.09 1.03 0.95 0.89 0.80
0.46 0.53 0.63 0.78 0.62 0.35 0.36 0.32 0.22 0.15 0.13 0.12 0.10 0.08 0.07 0.08 0.09 0.10 0.11 0.12 0.13 0.16 0.21 0.30 0.45 0.60 0.68 0.74 0.78 0.79 0.90 1.03 1.06 1.03 1.03 1.13 1.25 1.28 1.30 1.39 1.42 1.39 1.29 1.21 1.21 1.21 1.13 1.08 1.00